COSMOS 2251 DEB, 37336

Orbit data source: Space-Track

COSMOS 2251 DEB, 37336 is space debris in LEO originally from a launch on Wed, 16 Jun 1993 UTC launched from the Plesetsk Missile And Space Complex (PKMTR). The debris from Iridium 33, an American commercial communications satellite, has been tracked extensively since its accidental collision with the defunct Russian satellite Cosmos 2251 in 2009. This event, occurring at high speed in low Earth orbit (LEO), generated thousands of pieces of space debris, significantly increasing the risk of further collisions. The Iridium 33 debris cloud has impacted space traffic management and orbital debris mitigation strategies, making it a subject of ongoing study in space situational awareness.

Loading next visibility...
Identifier
37336, 1993-036BLC
Orbit
LEO
Country
Flag of CISCIS
Related business
Manufacturer
Unknown
Mission
Spacecraft
Bus & Motor
Unknown
Mass
Unknown
Launch date (UTC)
Icon of a cake. It is the launch day of the satellite!1993-06-16 (33 years ago)
Launch vehicle
Unknown
Launch site
Plesetsk Missile And Space Complex (PKMTR)
Object type
Payload
Rocket body
Debris
Shape & HBR
Unknown shape, 0.1 m
Radar Cross Section
Small (<0.1 m²)

Expand to show TLE details & history
Last TLE update: 18 hours ago

TLE from 18 hours ago
0 COSMOS 2251 DEB
1 37336U 93036BLC 26167.22176434  .00000101  00000-0  46169-4 0  9996
2 37336  74.0408 352.5782 0029491  25.2229 335.0354 14.32833717677761
Epoch: 2026-06-16T05:19Z
TLE epoch observation values (Epoch: 2026-06-16T05:19:20.438Z)
Latitude
-0.00009°
Longitude
8.24611°
Altitude
765.746 km
Speed
7.482 km/s
True Right ascension
23h 30m 18s
True Declination
0° 00' 00"
Sunlit
Object was in daylight at epoch
Visualization orbit readout
Latitude
Unknown
Longitude
Unknown
Altitude
Unknown
Speed
Unknown
Apparent Right ascension
Unknown
Apparent Declination
Unknown
Sunlit
N/A
Visualization observer readout
Local Sidereal Time
10:19:29
Azimuth
Unknown
Elevation
Unknown
Doppler factor
Unknown
Orbital elements
Apogee altitude
801.011 km
Perigee altitude
758.792 km
Semi-major axis
7,158.039 km
Eccentricity
0.00295
Inclination
74.0408°
RAAN
352.5782°
Arg. of periapsis
25.2229°
True anomaly
334.89229°
Mean anomaly
335.0354°
Eccentric anomaly
334.96389°
Mean motion
3.58387 °/min
Orbital period
100.45 mins
BSTAR
0.000046169

Documentation

Showing up to 5 results
|